Location: Unspecified
(43.4354°N, 0.0000°E)
Time: 00:32:15
(UTC+00:00)

Vanguard 2 Rocket - Pass Details

Date: 22 June 2019
Orbit: 554 x 3326 km, 32.9° (Epoch: 19 July)

Event Time Altitude Azimuth Distance (km) Brightness Sun altitude
Rises 01:50:41 0° 270° (W) 5,349 10.6 -18.6°
Reaches altitude 10° 01:53:52 10° 265° (W) 4,674 10.2 -18.3°
Maximum altitude 02:07:13 47° 197° (SSW) 3,538 9.4 -17.2°
Drops below altitude 10° 02:25:38 10° 132° (SE) 6,281 11.1 -15.4°
Sets 02:30:48 0° 128° (SE) 7,260 11.5 -14.9°
